This demonstration page uses our WeatherBlox Daily Observations layout. Learn more.

Left ArrowRight Arrow

41.12389, -100.76542

Hourly Observations for March 29, 2018

Temp ( °F °C ) Dew Point ( °F °C ) Humidity (%) Winds ( mph kmh ) Pressure ( in mb ) Visibility ( mi km ) Precip ( " mm )
12:53 am 00:53 Clear 28 -2.2 26 -3.3 92 92 Calm 30.06 1018 10 16 0.00 0.00
1:53 am 01:53 Clear 27 -2.8 25 -3.9 92 92 N 3 6 30.07 1018 10 16 0.00 0.00
2:53 am 02:53 Clear 26 -3.3 23 -5 88 88 NNW 3 6 30.08 1019 10 16 0.00 0.00
3:49 am 03:49 Mostly Cloudy 25 -4 21 -6 86 86 Calm 30.18 1022 10 16 0.00 0.00
3:53 am 03:53 Mostly Cloudy 26 -3.3 22 -5.6 84 84 N 3 6 30.08 1019 10 16 0.00 0.00
4:05 am 04:05 Cloudy 27 -2.8 25 -3.9 92 92 VRB 3 6 30.18 1022 10 16 0.00 0.00
4:15 am 04:15 Cloudy with Mist and Fog 29 -1.7 26 -3.3 89 89 NE 6 9 30.18 1022 2 3 0.00 0.00
4:23 am 04:23 Cloudy with Mist and Fog 29 -1.7 27 -2.8 92 92 NE 3 6 30.18 1022 1 2 0.00 0.00
4:30 am 04:30 Mostly Cloudy with Freezing Fog 30 -1.1 28 -2.2 92 92 Calm 30.18 1022 1 1 0.00 0.00
4:53 am 04:53 Cloudy with Mist and Fog 31 -0.6 29 -1.7 92 92 NE 8 13 30.07 1018 1 2 0.00 0.00
5:01 am 05:01 Cloudy with Mist and Fog 30 -1.1 29 -1.7 96 96 NE 3 6 30.18 1022 2 2 0.00 0.00
5:09 am 05:09 Cloudy with Mist and Fog 30 -1.1 29 -1.7 96 96 NNE 3 6 30.18 1022 1 2 0.00 0.00
5:15 am 05:15 Cloudy with Mist and Fog 31 -0.6 29 -1.7 92 92 NNE 5 7 30.15 1021 2 3 0.00 0.00
5:30 am 05:30 Cloudy with Mist and Fog 31 -0.6 29 -1.7 92 92 ENE 5 7 30.15 1021 4 6 0.00 0.00
5:53 am 05:53 Cloudy 30 -1.1 27 -2.8 88 88 NE 8 13 30.06 1018 7 11 0.00 0.00
6:53 am 06:53 Cloudy with Mist and Fog 30 -1.1 28 -2.2 92 92 NNE 8 13 30.08 1019 6 10 0.00 0.00
7:16 am 07:16 Cloudy 29 -1.7 26 -3.3 89 89 NE 7 11 30.18 1022 7 11 0.00 0.00
7:53 am 07:53 Cloudy 29 -1.7 25 -3.9 85 85 NNE 7 11 30.10 1019 8 13 0.00 0.00
8:53 am 08:53 Mostly Cloudy 29 -1.7 26 -3.3 89 89 NE 7 11 30.12 1020 7 11 0.00 0.00
9:53 am 09:53 Mostly Cloudy 33 0.6 24 -4.4 70 70 VRB 5 7 30.14 1021 10 16 0.00 0.00
10:53 am 10:53 Cloudy 33 0.6 23 -5 66 66 N 7 11 30.16 1022 10 16 0.00 0.00
11:53 am 11:53 Cloudy 36 2.2 24 -4.4 62 62 NE 9 15 30.15 1021 10 16 0.00 0.00
12:53 pm 12:53 Cloudy 38 3.3 22 -5.6 52 52 E 7 11 30.15 1021 10 16 0.00 0.00
1:53 pm 13:53 Cloudy 39 3.9 22 -5.6 50 50 VRB 5 7 30.16 1021 10 16 0.00 0.00
2:53 pm 14:53 Cloudy 40 4.4 20 -6.7 45 45 N 6 9 30.16 1021 10 16 0.00 0.00
3:53 pm 15:53 Cloudy 39 3.9 21 -6.1 48 48 NNE 9 15 30.16 1022 10 16 0.00 0.00
4:53 pm 16:53 Cloudy 41 5 24 -4.4 51 51 NE 10 17 30.16 1021 10 16 0.00 0.00
5:53 pm 17:53 Cloudy 39 3.9 24 -4.4 55 55 NE 7 11 30.19 1022 10 16 0.00 0.00
6:53 pm 18:53 Cloudy 38 3.3 24 -4.4 57 57 NE 5 7 30.21 1023 10 16 0.00 0.00
7:53 pm 19:53 Cloudy 38 3.3 24 -4.4 57 57 N 5 7 30.23 1024 10 16 0.00 0.00
8:53 pm 20:53 Cloudy 37 2.8 25 -3.9 62 62 N 5 7 30.27 1025 10 16 0.00 0.00
9:53 pm 21:53 Clear 34 1.1 25 -3.9 70 70 Calm 30.28 1025 10 16 0.00 0.00
10:53 pm 22:53 Clear 25 -3.9 20 -6.7 81 81 Calm 30.31 1027 10 16 0.00 0.00
11:53 pm 23:53 Clear 23 -5 19 -7.2 85 85 Calm 30.30 1026 10 16 0.00 0.00

Powered by AerisWeather